Date String (YYYY-MM-DD hh:mm:ss) UTC,Instrument flags,absolute air pressure of the measurement (hPa),sample flow rate (lpm),inlet stack bypass flow (lpm),air temperature of the measurement (°C),ambient temperature measured by the external sensor (°C),aerosol sample conditioner tube jacket temperature (°C),OPC LED temperature (°C),internal box temperature (°C),relative humidity of the measurement (%),span deviation,mass concentration of particles derived from Lorenz-Mie calculation of OPC scattering (μg/m³),mass concentration of particles derived from Lorenz-Mie calculation of OPC scattering (μg/m³),mass concentration of particles derived from Lorenz-Mie calculation of OPC scattering (μg/m³)
DateTimeUTC,F1_M11,P_M11,Q1_M11,Q2_M11,T1_M11,T2_M11,T3_M11,T4_M11,T5_M11,U1_M11,ZSPAN_M11,X0_M11,X2_M11,X1_M11
2023-05-31 06:00:00,SystemResetWarning,0829.7,5.00,000.00,030.0,028.4,000.0,038.3,031.5,19.9,0000.0,0014.41,0003.60,0002.16
2023-05-31 06:01:00,SystemResetWarning,0829.7,5.00,000.00,030.0,028.4,000.0,038.3,031.5,19.9,0000.0,0014.34,0003.63,0002.15
2023-05-31 06:02:00,SystemResetWarning,0829.7,5.00,000.00,030.0,028.4,000.0,038.3,031.5,19.9,0000.0,0014.56,0003.71,0002.15
2023-05-31 06:03:00,SystemResetWarning,0829.7,4.99,000.00,030.0,028.4,000.0,038.3,031.6,19.9,0000.0,0014.15,0003.73,0002.15
2023-05-31 06:04:00,SystemResetWarning,0829.7,4.99,000.00,030.0,028.5,000.0,038.3,031.6,20.0,0000.0,0013.14,0003.67,0002.14
2023-05-31 06:05:00,SystemResetWarning,0829.8,5.01,000.00,030.0,028.5,000.0,038.3,031.6,20.0,0000.0,0012.86,0003.63,0002.14
2023-05-31 06:06:00,SystemResetWarning,0829.8,5.00,000.00,030.0,028.5,000.0,038.3,031.6,20.0,0000.0,0013.40,0003.64,0002.14
2023-05-31 06:07:00,SystemResetWarning,0829.9,5.00,000.00,030.0,028.5,000.0,038.3,031.6,20.0,0000.0,0013.95,0003.64,0002.14
2023-05-31 06:08:00,SystemResetWarning,0829.9,5.01,000.00,030.0,028.5,000.0,038.3,031.6,20.1,0000.0,0013.35,0003.69,0002.16
2023-05-31 06:09:00,SystemResetWarning,0829.9,5.01,000.00,030.0,028.5,000.0,038.3,031.6,20.1,0000.0,0013.56,0003.68,0002.17
2023-05-31 06:10:00,SystemResetWarning,0829.8,4.99,000.00,030.0,028.5,000.0,038.3,031.6,20.1,0000.0,0012.14,0003.63,0002.18
2023-05-31 06:11:00,SystemResetWarning,0829.8,5.00,000.00,030.0,028.5,000.0,038.4,031.6,20.1,0000.0,0011.74,0003.61,0002.18
2023-05-31 06:12:00,SystemResetWarning,0829.8,4.99,000.00,030.0,028.5,000.0,038.4,031.6,20.1,0000.0,0011.77,0003.56,0002.15
2023-05-31 06:13:00,SystemResetWarning,0829.9,5.00,000.00,030.0,028.5,000.0,038.4,031.6,20.1,0000.0,0012.74,0003.47,0002.15
2023-05-31 06:14:00,SystemResetWarning,0830.0,5.01,000.00,030.0,028.5,000.0,038.4,031.6,20.1,0000.0,0013.58,0003.44,0002.16
2023-05-31 06:15:00,SystemResetWarning,0830.0,5.01,000.00,030.0,028.5,000.0,038.4,031.6,20.1,0000.0,0013.72,0003.44,0002.17
2023-05-31 06:16:00,SystemResetWarning,0830.0,4.99,000.00,030.0,028.5,000.0,038.4,031.6,20.1,0000.0,0013.18,0003.43,0002.18
2023-05-31 06:17:00,SystemResetWarning,0830.0,4.99,000.00,030.0,028.5,000.0,038.4,031.6,20.1,0000.0,0013.52,0003.40,0002.18
2023-05-31 06:18:00,SystemResetWarning,0830.0,5.00,000.00,030.0,028.5,000.0,038.4,031.6,20.1,0000.0,0012.94,0003.39,0002.18
2023-05-31 06:19:00,SystemResetWarning,0830.0,5.01,000.00,030.0,028.4,000.0,038.4,031.6,20.0,0000.0,0012.69,0003.34,0002.17
2023-05-31 06:20:00,SystemResetWarning,0830.0,5.01,000.00,030.0,028.4,000.0,038.4,031.6,20.0,0000.0,0011.92,0003.36,0002.19
2023-05-31 06:21:00,SystemResetWarning,0830.0,5.01,000.00,030.0,028.4,000.0,038.4,031.6,20.1,0000.0,0011.97,0003.39,0002.19
2023-05-31 06:22:00,SystemResetWarning,0830.1,4.99,000.00,030.0,028.4,000.0,038.4,031.6,20.1,0000.0,0011.62,0003.40,0002.20
2023-05-31 06:23:00,SystemResetWarning,0830.0,5.00,000.00,030.0,028.4,000.0,038.4,031.6,20.1,0000.0,0011.73,0003.44,0002.21
2023-05-31 06:24:00,SystemResetWarning,0830.0,4.99,000.00,030.0,028.4,000.0,038.4,031.6,20.1,0000.0,0011.32,0003.47,0002.20
2023-05-31 06:25:00,SystemResetWarning,0830.0,5.00,000.00,030.0,028.4,000.0,038.4,031.6,20.1,0000.0,0010.25,0003.49,0002.19
2023-05-31 06:26:00,SystemResetWarning,0830.0,5.00,000.00,030.0,028.4,000.0,038.4,031.6,20.1,0000.0,0011.02,0003.51,0002.18
2023-05-31 06:27:00,SystemResetWarning,0830.1,5.01,000.00,030.0,028.4,000.0,038.4,031.6,20.1,0000.0,0011.47,0003.53,0002.17
2023-05-31 06:28:00,SystemResetWarning,0830.1,5.00,000.00,030.0,028.3,000.0,038.4,031.5,20.1,0000.0,0011.18,0003.55,0002.17
2023-05-31 06:29:00,SystemResetWarning,0830.1,5.00,000.00,030.0,028.3,000.0,038.4,031.5,20.1,0000.0,0011.76,0003.60,0002.17
2023-05-31 06:30:00,SystemResetWarning,0830.1,4.99,000.00,030.0,028.3,000.0,038.4,031.5,20.1,0000.0,0012.29,0003.59,0002.18
2023-05-31 06:31:00,SystemResetWarning,0830.1,5.00,000.00,030.0,028.3,000.0,038.4,031.5,20.2,0000.0,0012.58,0003.62,0002.17
2023-05-31 06:32:00,SystemResetWarning,0830.1,5.00,000.00,030.0,028.3,000.0,038.4,031.5,20.2,0000.0,0012.75,0003.59,0002.17
2023-05-31 06:33:00,SystemResetWarning,0830.1,5.00,000.00,030.0,028.3,000.0,038.4,031.5,20.2,0000.0,0012.57,0003.55,0002.17
2023-05-31 06:34:00,SystemResetWarning,0830.1,4.99,000.00,030.0,028.3,000.0,038.4,031.5,20.3,0000.0,0013.00,0003.57,0002.17
2023-05-31 06:35:00,SystemResetWarning,0830.2,4.99,000.00,030.0,028.3,000.0,038.4,031.5,20.4,0000.0,0012.63,0003.57,0002.18
2023-05-31 06:36:00,SystemResetWarning,0830.2,5.01,000.00,030.0,028.3,000.0,038.4,031.5,20.3,0000.0,0013.37,0003.58,0002.19
2023-05-31 06:37:00,SystemResetWarning,0830.3,5.01,000.00,030.0,028.4,000.0,038.4,031.5,20.3,0000.0,0012.48,0003.59,0002.20
2023-05-31 06:38:00,SystemResetWarning,0830.3,4.99,000.00,030.0,028.3,000.0,038.4,031.5,20.4,0000.0,0012.77,0003.59,0002.20
2023-05-31 06:39:00,SystemResetWarning,0830.2,5.00,000.00,030.0,028.3,000.0,038.4,031.5,20.4,0000.0,0013.71,0003.58,0002.21
2023-05-31 06:40:00,SystemResetWarning,0830.2,4.99,000.00,030.0,028.3,000.0,038.4,031.5,20.4,0000.0,0013.08,0003.54,0002.20
2023-05-31 06:41:00,SystemResetWarning,0830.1,5.00,000.00,030.0,028.3,000.0,038.4,031.5,20.5,0000.0,0012.93,0003.56,0002.20
2023-05-31 06:42:00,SystemResetWarning,0830.2,5.01,000.00,030.0,028.3,000.0,038.4,031.5,20.4,0000.0,0012.67,0003.55,0002.20
2023-05-31 06:43:00,SystemResetWarning,0830.2,5.01,000.00,030.0,028.3,000.0,038.4,031.5,20.6,0000.0,0013.01,0003.62,0002.21
2023-05-31 06:44:00,SystemResetWarning,0830.2,5.00,000.00,030.0,028.3,000.0,038.4,031.5,20.5,0000.0,0013.31,0003.68,0002.21
2023-05-31 06:45:00,SystemResetWarning,0830.2,5.00,000.00,030.0,028.3,000.0,038.4,031.5,20.5,0000.0,0013.05,0003.70,0002.20
2023-05-31 06:46:00,SystemResetWarning,0830.2,4.99,000.00,030.0,028.3,000.0,038.4,031.5,20.5,0000.0,0013.59,0003.74,0002.21
2023-05-31 06:47:00,SystemResetWarning,0830.2,4.99,000.00,030.0,028.3,000.0,038.4,031.5,20.5,0000.0,0013.56,0003.76,0002.21
2023-05-31 06:48:00,SystemResetWarning,0830.2,5.00,000.00,030.0,028.3,000.0,038.4,031.5,20.5,0000.0,0014.70,0003.76,0002.22
2023-05-31 06:49:00,SystemResetWarning,0830.3,5.01,000.00,030.0,028.3,000.0,038.4,031.5,20.5,0000.0,0015.36,0003.77,0002.23
2023-05-31 06:50:00,SystemResetWarning,0830.2,5.00,000.00,030.0,028.2,000.0,038.3,031.5,20.5,0000.0,0014.72,0003.81,0002.24
2023-05-31 06:51:00,SystemResetWarning,0830.2,5.00,000.00,029.9,028.2,000.0,038.3,031.4,20.5,0000.0,0014.86,0003.81,0002.26
2023-05-31 06:52:00,SystemResetWarning,0830.2,5.00,000.00,029.9,028.1,000.0,038.3,031.4,20.5,0000.0,0014.60,0003.84,0002.27
2023-05-31 06:53:00,SystemResetWarning,0830.3,5.01,000.00,029.9,028.0,000.0,038.3,031.3,20.4,0000.0,0014.56,0003.81,0002.27
2023-05-31 06:54:00,SystemResetWarning,0830.2,5.00,000.00,029.9,028.0,000.0,038.3,031.3,20.5,0000.0,0014.33,0003.78,0002.27
2023-05-31 06:55:00,SystemResetWarning,0830.2,4.99,000.00,029.8,027.9,000.0,038.3,031.3,20.6,0000.0,0014.92,0003.78,0002.28
2023-05-31 06:56:00,SystemResetWarning,0830.2,5.00,000.00,029.8,027.8,000.0,038.3,031.2,20.4,0000.0,0014.62,0003.75,0002.29
2023-05-31 06:57:00,SystemResetWarning,0830.2,5.00,000.00,029.8,027.8,000.0,038.3,031.2,20.3,0000.0,0013.94,0003.70,0002.30
2023-05-31 06:58:00,SystemResetWarning,0830.2,5.00,000.00,029.7,027.7,000.0,038.2,031.2,20.6,0000.0,0013.29,0003.66,0002.29
2023-05-31 06:59:00,SystemResetWarning,0830.2,5.00,000.00,029.7,027.7,000.0,038.2,031.2,20.8,0000.0,0013.05,0003.69,0002.30
